{"data":{"norad_id":44723,"epoch":"2026-05-24T12:15:58.452480Z","epoch_age_seconds":114307,"freshness":"FRESH","line1":"1 44723U 19074L   26144.51109320  .00031576  00000+0  10734-2 0  9997","line2":"2 44723  53.0473 179.8714 0005269 350.8425   9.2477 15.30198902360556","mean_motion":15.30198902,"eccentricity":0.0005269,"inclination_deg":53.0473,"raan_deg":179.8714,"arg_perigee_deg":350.8425,"mean_anomaly_deg":9.2477,"bstar":0.0010734,"rev_number":36055,"period_min":94.10541323209,"perigee_km":471.60731491858,"apogee_km":478.82938078415,"semimajor_km":6853.3553478514,"source":"CELESTRAK","updated_at":"2026-05-25T13:38:16.372210Z"}}